Regional Weather Roundup
Issued by NWS Albany, NY

Home | Current Version | Previous Version | Graphics & Text | Print | Product List | Glossary Off
Versions: 1 2 3 4 5 6 7 8 9 10 11 12 13 14 15 16 17 18 19 20 21 22 23 24 25 26 27 28 29 30 31 32 33 34 35 36 37 38 39 40 41 42 43 44 45 46 47 48 49 50

000
ASUS41 KALY 250210
RWRALY

NEW YORK STATE HOURLY WEATHER ROUNDUP
NATIONAL WEATHER SERVICE ALBANY NY
900 PM EST SAT JAN 24 2015

NOTE: "FAIR" INDICATES FEW OR NO CLOUDS BELOW 12,000 FEET WITH NO
SIGNIFICANT WEATHER AND/OR NO OBSTRUCTIONS TO VISIBILITY.

NYZ032-033-038>043-046>054-057>066-NYZ062>081-250300-
EAST


CITY           SKY/WX    TMP DP  RH WIND       PRES   REMARKS
ALBANY         CLOUDY    31  23  72 W15       29.40R WCI  20
GLENS FALLS    CLOUDY    25  22  88 CALM      29.35R FOG
POUGHKEEPSIE   CLOUDY    27  24  89 NW5       29.40R FOG     WCI  22
NEWBURGH       MOCLDY    34  25  69 NW16G23   29.39R WCI  23
MONTGOMERY     PTCLDY    34  22  61 NW18G25   29.40R WCI  23
WHITE PLAINS   CLEAR     35  26  69 W12G22    29.38R WCI  27
ISLIP          MOCLDY    34  31  88 NW7       29.37R WCI  28
NEW YORK CITY  PTCLDY    38  23  55 NW22G30   29.41R WCI  27
CENTRAL PARK   CLEAR     38  22  52 NW8       29.44R WCI  32
$$

NYZ005>009-017-018-044>046-055-056-250300-
CENTRAL


CITY           SKY/WX    TMP DP  RH WIND       PRES   REMARKS
FULTON         CLOUDY    31  27  85 W15       29.45S WCI  20
SYRACUSE       LGT SNOW  27  27 100 W14       29.45F FOG     WCI  16
ROME           CLOUDY    28  26  92 W10       29.45F WCI  19
ELMIRA         CLOUDY    31  24  75 W8        29.48S WCI  23
BINGHAMTON     LGT SNOW  26  22  84 W12       29.41F FOG     WCI  16
MONTICELLO     CLOUDY    28  21  74 NW16G26   29.39R WCI  17
$$

NYZ026>034-041>043-250300-
NORTH


CITY           SKY/WX    TMP DP  RH WIND       PRES   REMARKS
WATERTOWN      LGT SNOW  32  29  88 SW9       29.41F FOG     WCI  24
FORT DRUM      NOT AVBL
MASSENA        LGT SNOW  29  29 100 SW9       29.37F FOG     WCI  20
SARANAC LAKE   FLURRIES  24  22  91 W6        29.27F WCI  17
PLATTSBURGH    FLURRIES  31  24  75 CALM      29.32F
$$

NYZ001>004-010>016-019>021-250300-
WEST


CITY           SKY/WX    TMP DP  RH WIND       PRES   REMARKS
NIAGARA FALLS  LGT SNOW  30  27  88 W14       29.51S FOG     WCI  19
BUFFALO        FRZ RAIN  31  28  89 W14       29.51S FOG     WCI  21
DUNKIRK        CLOUDY    31  30  96 W14G22    29.56S FOG     WCI  21
JAMESTOWN      CLOUDY    28  25  86 W12       29.52S WCI  18
WELLSVILLE     CLOUDY    25  22  88 W14G26    29.46F WCI  13
ROCHESTER      FLURRIES  32  28  85 W15       29.48S WCI  22
PENN YAN       CLOUDY    31  24  75 SW12      29.47S WCI  22
$$

             KEY
       WCI = WIND CHILL INDEX
       VSB = VISIBILITY
       HX  = HEAT INDEX
$$



USA.gov is the U.S. government's official web portal to all federal, state and local government web resources and services.